Torna al catalogo

CZ-4B DEB

AttivoSSO
NORAD 38314·DEBRIS·🇨🇳 China

Lanciato Aug 15, 2011 da Taiyuan Satellite Launch Center

Loading…

Prossimi Passaggi (prossime 24 ore)

TLE

AggiornatoSource: Space-Track

Epoca: Sep 12, 2026, 11:57 UTC

1 38314U 11043D   26255.49844134  .00000207  00000-0  36093-3 0  9998
2 38314  99.5350 350.0645 0263871 261.9343 159.5308 13.42390826659863

Traccia CZ-4B DEB in tempo reale con AllMySat

Download on the App Store